AMQ6019 EPKT-LIEO

Flight info

Callsign AMQ6019
Flight time N/A
Altitude 36000
Route TUSIN DCT TOVKA DCT RADLY DCT RIFEN/N0449F370 DCT ARDAM DCT BIKTU DCT ELKAP DCT DEDOM DCT BATOX
Aircraft A320/M-SDE3FGHIRWY/LB1

Departure

Time N/A
Airport Katowice Wojciech Korfanty International Airport (EPKT)

Arrival

Time 2026-04-29 21:33
Airport Olbia Costa Smeralda Airport (LIEO)
Time Latitude Longitude Altitude Speed Heading
2026-04-29 20:21 47.61840 16.22169 36354 ft 468 kts 228°
2026-04-29 20:22 47.56590 16.16576 36355 ft 468 kts 228°
2026-04-29 20:22 47.51346 16.11009 36356 ft 468 kts 228°
2026-04-29 20:23 47.46055 16.05406 36354 ft 468 kts 228°
2026-04-29 20:23 47.40828 15.99884 36344 ft 468 kts 228°
2026-04-29 20:24 47.35500 15.94270 36329 ft 468 kts 228°
2026-04-29 20:24 47.30226 15.88727 36317 ft 468 kts 228°
2026-04-29 20:25 47.24907 15.83151 36310 ft 468 kts 228°
2026-04-29 20:25 47.19640 15.77642 36307 ft 468 kts 228°
2026-04-29 20:26 47.14358 15.72131 36305 ft 468 kts 228°
2026-04-29 20:26 47.09045 15.66602 36304 ft 468 kts 228°
2026-04-29 20:27 47.04648 15.62036 36304 ft 468 kts 228°
2026-04-29 20:27 46.98439 15.55598 36302 ft 471 kts 228°
2026-04-29 20:28 46.93086 15.50058 36302 ft 476 kts 227°
2026-04-29 20:28 46.87655 15.44469 36298 ft 481 kts 226°
2026-04-29 20:29 46.82162 15.38871 36302 ft 482 kts 226°
2026-04-29 20:29 46.76707 15.33289 36304 ft 483 kts 226°
2026-04-29 20:30 46.71239 15.27650 36303 ft 481 kts 227°
2026-04-29 20:30 46.66163 15.21544 36303 ft 469 kts 235°
2026-04-29 20:31 46.61756 15.14694 36304 ft 456 kts 243°
2026-04-29 20:31 46.58057 15.07359 36307 ft 454 kts 248°
2026-04-29 20:32 46.54474 14.99784 36306 ft 463 kts 247°
2026-04-29 20:32 46.50771 14.92047 36297 ft 466 kts 246°
2026-04-29 20:33 46.47051 14.84347 36288 ft 464 kts 246°
2026-04-29 20:33 46.43361 14.76734 36282 ft 464 kts 246°
2026-04-29 20:34 46.39663 14.69118 36280 ft 464 kts 246°
2026-04-29 20:34 46.35962 14.61513 36278 ft 464 kts 246°
2026-04-29 20:35 46.32245 14.53894 36278 ft 463 kts 246°
2026-04-29 20:35 46.28532 14.46305 36278 ft 464 kts 246°
2026-04-29 20:36 46.24809 14.38716 36277 ft 463 kts 246°
2026-04-29 20:36 46.21080 14.31129 36278 ft 464 kts 245°
2026-04-29 20:37 46.17351 14.23548 36277 ft 465 kts 245°
2026-04-29 20:37 46.13607 14.15972 36277 ft 465 kts 245°
2026-04-29 20:38 46.09852 14.08399 36274 ft 465 kts 245°
2026-04-29 20:38 46.06120 14.00894 36257 ft 464 kts 245°
2026-04-29 20:39 46.02348 13.93330 36230 ft 464 kts 245°
2026-04-29 20:39 45.98596 13.85825 36201 ft 465 kts 245°
2026-04-29 20:40 45.94809 13.78274 36184 ft 465 kts 245°
2026-04-29 20:40 45.91042 13.70785 36175 ft 465 kts 245°
2026-04-29 20:41 45.87027 13.63434 36168 ft 474 kts 239°
2026-04-29 20:41 45.82357 13.56655 36168 ft 484 kts 232°
2026-04-29 20:42 45.77073 13.50592 36175 ft 494 kts 226°
2026-04-29 20:42 45.74292 13.47692 36311 ft 494 kts 226°
2026-04-29 20:42 45.71529 13.44825 36487 ft 493 kts 226°
2026-04-29 20:43 45.68760 13.41947 36644 ft 493 kts 226°
2026-04-29 20:43 45.66019 13.39094 36771 ft 492 kts 226°
2026-04-29 20:43 45.60504 13.33341 36980 ft 493 kts 226°
2026-04-29 20:44 45.57721 13.30428 37094 ft 494 kts 226°
2026-04-29 20:44 45.54968 13.27551 37164 ft 494 kts 226°
2026-04-29 20:44 45.49435 13.21791 37176 ft 495 kts 226°
2026-04-29 20:45 45.43910 13.16063 37179 ft 493 kts 225°
2026-04-29 20:45 45.38387 13.10355 37177 ft 487 kts 225°
2026-04-29 20:46 45.32967 13.04768 37173 ft 482 kts 225°
2026-04-29 20:46 45.27591 12.99239 37172 ft 477 kts 225°
2026-04-29 20:47 45.22254 12.93761 37170 ft 473 kts 224°
2026-04-29 20:47 45.16927 12.88311 37170 ft 472 kts 224°
2026-04-29 20:48 45.11645 12.82915 37170 ft 472 kts 224°
2026-04-29 20:48 45.06305 12.77471 37169 ft 473 kts 224°
2026-04-29 20:49 45.00986 12.72060 37169 ft 475 kts 224°
2026-04-29 20:49 44.95628 12.66626 37169 ft 477 kts 224°
2026-04-29 20:50 44.90212 12.61153 37169 ft 478 kts 224°
2026-04-29 20:50 44.84838 12.55760 37162 ft 478 kts 223°
2026-04-29 20:51 44.79500 12.50250 37156 ft 475 kts 227°
2026-04-29 20:51 44.74529 12.44249 37148 ft 472 kts 230°
2026-04-29 20:52 44.69605 12.38163 37144 ft 472 kts 230°
2026-04-29 20:52 44.64690 12.32097 37144 ft 472 kts 229°
2026-04-29 20:53 44.59780 12.26039 37143 ft 472 kts 229°
2026-04-29 20:53 44.54845 12.19981 37142 ft 472 kts 229°
2026-04-29 20:54 44.47449 12.10943 37142 ft 472 kts 229°
2026-04-29 20:55 44.42508 12.04922 37142 ft 472 kts 229°
2026-04-29 20:55 44.37562 11.98912 37142 ft 472 kts 229°
2026-04-29 20:56 44.32626 11.92926 37143 ft 472 kts 229°
2026-04-29 20:56 44.27647 11.86904 37143 ft 472 kts 229°
2026-04-29 20:57 44.22717 11.80953 37141 ft 472 kts 229°
2026-04-29 20:57 44.17764 11.74990 37141 ft 472 kts 229°
2026-04-29 20:58 44.12814 11.69040 37142 ft 472 kts 229°
2026-04-29 20:58 44.07819 11.63054 37138 ft 473 kts 229°
2026-04-29 20:59 44.02805 11.57229 37127 ft 477 kts 225°
2026-04-29 20:59 43.97299 11.52024 37106 ft 484 kts 218°
2026-04-29 21:00 43.91346 11.47600 37083 ft 488 kts 214°
2026-04-29 21:00 43.85296 11.43342 37069 ft 488 kts 214°
2026-04-29 21:01 43.79250 11.39086 37065 ft 488 kts 214°
2026-04-29 21:01 43.73239 11.34835 37062 ft 489 kts 214°
2026-04-29 21:02 43.67233 11.30561 37061 ft 489 kts 214°
2026-04-29 21:02 43.61169 11.26259 37060 ft 489 kts 214°
2026-04-29 21:03 43.55148 11.22010 37061 ft 489 kts 214°
2026-04-29 21:03 43.49199 11.17827 37062 ft 489 kts 214°
2026-04-29 21:04 43.43162 11.13593 37061 ft 489 kts 214°
2026-04-29 21:04 43.37116 11.09362 37061 ft 489 kts 214°
2026-04-29 21:05 43.31056 11.05131 37061 ft 489 kts 214°
2026-04-29 21:05 43.25003 11.00913 37063 ft 488 kts 214°
2026-04-29 21:06 43.18994 10.96735 37062 ft 484 kts 214°
2026-04-29 21:06 43.13013 10.92586 37062 ft 481 kts 213°
2026-04-29 21:07 43.07089 10.88486 37063 ft 478 kts 213°
2026-04-29 21:07 43.01177 10.84401 37062 ft 476 kts 213°
2026-04-29 21:08 42.95290 10.80342 37062 ft 473 kts 212°
2026-04-29 21:08 42.89427 10.76313 37060 ft 473 kts 212°
2026-04-29 21:09 42.83546 10.72302 37060 ft 474 kts 212°
2026-04-29 21:09 42.77673 10.68290 37061 ft 474 kts 212°
2026-04-29 21:10 42.71651 10.64668 36732 ft 472 kts 207°
2026-04-29 21:10 42.68627 10.63069 36065 ft 473 kts 206°
2026-04-29 21:10 42.65576 10.61476 35211 ft 476 kts 206°
2026-04-29 21:10 42.62495 10.59864 34334 ft 479 kts 206°
2026-04-29 21:11 42.59395 10.58233 33474 ft 481 kts 206°
2026-04-29 21:11 42.56296 10.56596 32620 ft 483 kts 206°
2026-04-29 21:11 42.53171 10.54942 31739 ft 484 kts 206°
2026-04-29 21:11 42.50039 10.53283 30840 ft 486 kts 206°
2026-04-29 21:12 42.46915 10.51632 30002 ft 476 kts 206°
2026-04-29 21:12 42.43905 10.50045 28748 ft 469 kts 206°
2026-04-29 21:12 42.40913 10.48464 27356 ft 465 kts 206°
2026-04-29 21:12 42.37930 10.46885 26214 ft 464 kts 206°
2026-04-29 21:13 42.34952 10.45311 25659 ft 458 kts 205°
2026-04-29 21:13 42.32027 10.43771 25160 ft 451 kts 205°
2026-04-29 21:13 42.29129 10.42246 24620 ft 445 kts 205°
2026-04-29 21:13 42.26271 10.40742 24045 ft 441 kts 205°
2026-04-29 21:14 42.23466 10.39266 23429 ft 439 kts 205°
2026-04-29 21:14 42.20629 10.37775 22837 ft 435 kts 205°
2026-04-29 21:14 42.17853 10.36317 22322 ft 430 kts 205°
2026-04-29 21:14 42.15083 10.34865 21831 ft 425 kts 204°
2026-04-29 21:15 42.12374 10.33437 21345 ft 420 kts 205°
2026-04-29 21:15 42.09662 10.32003 20862 ft 415 kts 205°
2026-04-29 21:15 42.06977 10.30589 20389 ft 410 kts 204°
2026-04-29 21:15 42.04343 10.29206 19923 ft 406 kts 204°
2026-04-29 21:16 42.01740 10.27844 19463 ft 402 kts 204°
2026-04-29 21:16 41.99162 10.26497 19007 ft 398 kts 204°
2026-04-29 21:16 41.96611 10.25166 18551 ft 394 kts 204°
2026-04-29 21:16 41.94098 10.23857 18103 ft 390 kts 204°
2026-04-29 21:17 41.91563 10.22538 17647 ft 386 kts 204°
2026-04-29 21:17 41.89110 10.21263 17207 ft 383 kts 204°
2026-04-29 21:17 41.86636 10.19985 16761 ft 380 kts 204°
2026-04-29 21:17 41.84178 10.18718 16317 ft 377 kts 204°
2026-04-29 21:18 41.81775 10.17477 15880 ft 374 kts 204°
2026-04-29 21:18 41.79359 10.16228 15439 ft 371 kts 204°
2026-04-29 21:18 41.76959 10.14988 14999 ft 368 kts 204°
2026-04-29 21:18 41.74612 10.13775 14567 ft 365 kts 204°
2026-04-29 21:19 41.72254 10.12557 14133 ft 362 kts 204°
2026-04-29 21:19 41.69898 10.11340 13697 ft 359 kts 204°
2026-04-29 21:19 41.67603 10.10156 13272 ft 356 kts 203°
2026-04-29 21:19 41.65288 10.08962 12842 ft 354 kts 203°
2026-04-29 21:20 41.63016 10.07792 12420 ft 351 kts 203°
2026-04-29 21:20 41.60765 10.06633 11999 ft 348 kts 203°
2026-04-29 21:20 41.58514 10.05476 11579 ft 346 kts 203°
2026-04-29 21:20 41.56270 10.04322 11160 ft 343 kts 203°
2026-04-29 21:21 41.54082 10.03198 10749 ft 340 kts 203°
2026-04-29 21:21 41.51865 10.02060 10328 ft 338 kts 203°
2026-04-29 21:21 41.49709 10.00955 10197 ft 324 kts 203°
2026-04-29 21:21 41.47688 9.99921 10118 ft 310 kts 203°
2026-04-29 21:22 41.45693 9.98901 10043 ft 296 kts 203°
2026-04-29 21:22 41.43807 9.97935 9795 ft 291 kts 203°
2026-04-29 21:22 41.41946 9.96980 9454 ft 289 kts 203°
2026-04-29 21:22 41.40073 9.96020 9125 ft 287 kts 203°
2026-04-29 21:23 41.38247 9.95085 8811 ft 284 kts 203°
2026-04-29 21:23 41.36393 9.94138 8496 ft 282 kts 202°
2026-04-29 21:23 41.34589 9.93217 8253 ft 276 kts 202°
2026-04-29 21:23 41.32821 9.92315 8029 ft 269 kts 202°
2026-04-29 21:24 41.31096 9.91436 7752 ft 265 kts 202°
2026-04-29 21:24 41.29389 9.90566 7470 ft 262 kts 202°
2026-04-29 21:24 41.27708 9.89710 7197 ft 258 kts 202°
2026-04-29 21:24 41.26075 9.88878 6891 ft 257 kts 202°
2026-04-29 21:25 41.24433 9.88043 6565 ft 255 kts 202°
2026-04-29 21:25 41.22790 9.87208 6242 ft 254 kts 202°
2026-04-29 21:25 41.21143 9.86370 5953 ft 252 kts 202°
2026-04-29 21:25 41.19532 9.85553 5738 ft 246 kts 202°
2026-04-29 21:26 41.17962 9.84756 5462 ft 244 kts 202°
2026-04-29 21:26 41.16394 9.83960 5175 ft 243 kts 202°
2026-04-29 21:26 41.14820 9.83162 4888 ft 242 kts 202°
2026-04-29 21:26 41.13242 9.82361 4612 ft 241 kts 202°
2026-04-29 21:27 41.12211 9.81839 4434 ft 240 kts 202°
2026-04-29 21:27 41.10164 9.80803 4083 ft 239 kts 202°
2026-04-29 21:27 41.08602 9.80013 3837 ft 236 kts 202°
2026-04-29 21:27 41.07087 9.79247 3635 ft 230 kts 202°
2026-04-29 21:28 41.05612 9.78502 3422 ft 225 kts 202°
2026-04-29 21:28 41.04185 9.77709 3187 ft 221 kts 211°
2026-04-29 21:28 41.02958 9.76516 3021 ft 217 kts 226°
2026-04-29 21:28 41.01977 9.75015 3007 ft 217 kts 236°
2026-04-29 21:29 41.01123 9.73353 3002 ft 217 kts 238°
2026-04-29 21:29 41.00294 9.71673 2999 ft 217 kts 238°
2026-04-29 21:29 40.99460 9.70029 2953 ft 218 kts 237°
2026-04-29 21:29 40.98604 9.68391 2731 ft 216 kts 237°
2026-04-29 21:30 40.97743 9.66762 2439 ft 214 kts 237°
2026-04-29 21:30 40.96910 9.65188 2157 ft 204 kts 237°
2026-04-29 21:30 40.96138 9.63725 1978 ft 183 kts 237°
2026-04-29 21:30 40.95439 9.62398 1728 ft 168 kts 237°
2026-04-29 21:31 40.94805 9.61191 1470 ft 155 kts 237°
2026-04-29 21:31 40.94215 9.60065 1236 ft 142 kts 237°
2026-04-29 21:31 40.93666 9.59018 1052 ft 138 kts 236°
2026-04-29 21:31 40.93123 9.57984 887 ft 137 kts 236°
2026-04-29 21:32 40.92576 9.56940 714 ft 137 kts 236°
2026-04-29 21:32 40.92034 9.55905 534 ft 137 kts 236°
2026-04-29 21:32 40.91493 9.54873 361 ft 136 kts 236°
2026-04-29 21:32 40.90956 9.53847 229 ft 136 kts 236°
2026-04-29 21:33 40.90418 9.52824 64 ft 135 kts 235°
2026-04-29 21:33 40.89933 9.51893 31 ft 103 kts 236°
2026-04-29 21:33 40.89624 9.51294 35 ft 54 kts 235°
2026-04-29 21:33 40.89471 9.51003 35 ft 34 kts 236°
2026-04-29 21:34 40.89339 9.50750 35 ft 33 kts 236°
2026-04-29 21:34 40.89272 9.50522 38 ft 22 kts 284°
2026-04-29 21:34 40.89366 9.50396 38 ft 20 kts 328°
2026-04-29 21:34 40.89492 9.50291 39 ft 21 kts 324°
2026-04-29 21:35 40.89568 9.50311 39 ft 13 kts 57°
2026-04-29 21:35 40.89599 9.50342 38 ft 3 kts 334°
2026-04-29 21:35 40.89623 9.50327 38 ft 3 kts 31°
2026-04-29 21:35 40.89627 9.50351 38 ft 0 kts 91°